Hourly Data Report for January 22, 2022

TORONTO CITY
ONTARIO
Current Station Operator: ECCC - MSC

43°40'00.000" N
79°24'00.000" W
112.50 m
6158355
71508
XTO

Download Data

Hourly Data (January 2022)
Hourly Data Report for January 22, 2022
TIME
LST
Temp Definition
°C
Dew Point Definition
°C
Rel Hum Definition
%
Precip. Amount Definition
mm

Wind Dir Definition
10's deg

Wind Spd Definition
km/h
Visibility Definition
km
Stn Press Definition
kPa
Hmdx Definition


Wind Chill Definition


Weather Definition


00:00 -9.4 -12.5 78 0.0       101.91     LegendNANA
01:00 -9.2 -12.3 78 0.0       101.83     LegendNANA
02:00 -8.9 -13.7 68 0.0       101.76     LegendNANA
03:00 -9.8 -13.2 76 0.0       101.66     LegendNANA
04:00 -11.5 -14.4 79 0.0       101.59     LegendNANA
05:00 -12.1 -14.6 81 0.0       101.50     LegendNANA
06:00 -11.1 -13.7 81 0.0       101.41     LegendNANA
07:00 -11.5 -14.3 80 0.0       101.37     LegendNANA
08:00 -11.1 -13.8 80 0.0       101.28     LegendNANA
09:00 -7.8 -11.7 74 0.0       101.21     LegendNANA
10:00 -6.6 -11.2 70 0.0       101.10     LegendNANA
11:00 -5.2 -11.2 63 0.0       101.02     LegendNANA
12:00 -4.9 -10.0 67 0.0       100.80     LegendNANA
13:00 -4.5 -9.6 68 0.0       100.58     LegendNANA
14:00 -4.2 -8.9 70 0.0       100.40     LegendNANA
15:00 -4.0 -9.0 69 0.0       100.30     LegendNANA
16:00 -3.9 -8.9 68 0.0       100.20     LegendNANA
17:00 -4.3 -8.3 74 0.0       100.16     LegendNANA
18:00 -4.4 -7.2 81 0.0       100.10     LegendNANA
19:00 -4.4 -7.1 81 0.0       100.07     LegendNANA
20:00 -4.3 -8.4 73 0.0       100.00     LegendNANA
21:00 -4.8 -9.2 71 0.0       99.96     LegendNANA
22:00 -4.9 -9.4 70 0.0       99.95     LegendNANA
23:00 -5.1 -9.5 72 0.0       99.92     LegendNANA

Notes on Data Quality.

Legend

  • E = Estimated
  • M = Missing
  • NA = Not Available*
  • [empty] = Indicates an unobserved value
Date modified: